Location: Campillo
(40.8621°N, 4.2488°W)
Time: 11:48:51
(UTC+00:00)

Cosmos 2228 Rocket - Pass Details

Date: 11 May 2021
Orbit: 619 x 651 km, 82.5° (Epoch: 13 June)

Event Time Altitude Azimuth Distance (km) Brightness Sun altitude
Exits shadow 21:45:36 48° 85° (E) 825 3.4 -21.8°
Drops below altitude 10° 21:49:43 10° 19° (NNE) 2,017 6.1 -22.3°
Sets 21:52:02 0° 14° (NNE) 2,935 7.1 -22.5°
